www.pogodaiklimat.ru

Погода и климат >> Архив погоды >> Россия >> Забайкальский край >> Большая Лепринда


ПОГОДА в Большой Лепринде

  • Прогноз погоды в Большой Лепринде
  • Монитор погоды в Большой Лепринде

АРХИВ ПОГОДЫ в Большой Лепринде

Время (UTC), дата Ветер
(напр.,м/с)
 
Видим.   Явления Облачность Т
(С)
Тd
(С)
f
(%)
Тe
(С)
Тes
(С)
Комфортность P
(гПа)
Po
(гПа)
Тmin
(С)
Tmax
(С)
R
(мм)
R24
(мм)
S
(см)
21 8.09 СЗ 1 н/о 3/0
[Ac lent Ci fib]
-0.4 -1.2 94 -3 -3 1018.5 900.0
00 9.09 СВ 1 50 км 3/1 600 м
[Cu hum Ci sp]
+5.4 -0.5 66 +5 +7 900.8 -0.7 0.0
03 9.09 В 2 50 км 4/4 600 м
[Sc diur, vesp]
+9.1 -1.0 49 +8 +12 1017.4 902.7
06 9.09 В 2 50 км 6/6 600 м
[Sc diur, vesp]
+11.7 -1.5 40 +11 +14 1016.3 902.7
09 9.09 СВ 2 50 км 6/3 1000 м
[Sc diur, vesp Ac trans Cc]
+10.7 -1.1 44 +10 +10 1016.7 902.7
12 9.09 В 1 н/о 3/0
[Ac trans]
+5.0 -0.4 68 +4 +4 903.3 +12.1
15 9.09 штиль 0 н/о 4/1 1000 м
[Sc diur, vesp Ac trans Ci fib]
+1.6 -1.1 82 +1 +1 1022.1 904.0
18 9.09 З 1 н/о ясно +1.4 -0.7 86 -0 -0 1023.7 905.3
21 9.09 З 2 н/о н/о +2.0 -0.3 85 -1 -1 1023.4 905.3
00 10.09 З 4 50 км 3/0
[Cc]
+6.3 +0.6 67 +3 +4 904.3 -0.5
03 10.09 З 4 50 км 3/1 1000 м
[Sc diur, vesp Ac trans]
+12.6 -0.6 40 +11 +15 1017.4 904.0
06 10.09 З 5 50 км 4/4 1000 м
[Cu hum]
+13.4 -1.8 35 +12 +14 1015.6 902.7
09 10.09 З 3 50 км 3/3 1000 м
[Sc diur, vesp]
+14.6 -1.9 32 +14 +15 1013.5 901.3
12 10.09 ЮЗ 2 н/о ясно +10.1 +0.4 51 +9 +9 900.5 +14.7
15 10.09 З 1 н/о 3/0
[Ci fib]
+5.9 +0.7 69 +5 +5 1017.1 901.3
18 10.09 ЮЗ 2 н/о 4/0
[Ci fib]
+4.7 +0.3 73 +2 +2 1016.2 900.0
21 10.09 З 2 н/о 8/8 600 м
[Cb cap]
+6.7 +1.2 68 +5 +5 1012.3 897.3
00 11.09 З 3 20 км в посл. час ливневой дождь 10/10 600 м
[Cb cap]
+7.0 +5.2 88 +4 +4 896.6 +4.1 3
03 11.09 З 4
{11}
50 км в посл. час ливневой дождь 6/6 600 м
[Cb cap]
+11.7 +6.0 68 +10 +12 1008.5 896.0
06 11.09 З 4
{11}
20 км осадки на расстоянии {ливн. осадки} 8/8 600 м
[Cb cap]
+13.5 +5.0 56 +12 +13 895.7
09 11.09 З 3
{10}
50 км 6/6 600 м
[Cb cap]
+12.8 +3.7 54 +12 +12 1009.6 897.3
12 11.09 ЮЗ 2 н/о 3/0
[Ac lent Ci fib]
+9.9 +3.0 62 +9 +9 897.1 +14.6 0.3
15 11.09 СВ 1 н/о 10/0
[Ac As]
+8.5 +2.3 65 +8 +8 1011.5 897.3
18 11.09 Ю 1 н/о слаб. ливневой дождь 10/10 600 м
[Cb cap]
+6.9 +5.8 93 +6 +6 1009.1 894.7
21 11.09 ЮЗ 1 н/о слаб. ливневой дождь 10/10 300 м
[Cb cap]
+6.1 +5.2 94 +5 +5 1006.4 892.0
00 12.09 СВ 1 10 км {ливн. осадки} 9/9 300 м
[Cb cap]
+5.7 +5.1 96 +4 +5 887.6 +5.5 7
03 12.09 З 2 10 км слаб. ливневой дождь 10/10 300 м
[Cb cap]
+7.3 +6.2 93 +5 +5 998.3 885.3
06 12.09 З 7-13
{13}
50 км {ливн. осадки} 10/8 600 м
[St As op]
+7.5 +5.7 88 +3 +3 885.2
09 12.09 З 6-10
{14}
50 км 10/5 600 м
[Sc diur, vesp As trans]
+7.8 +3.6 75 +4 +4 1001.2 888.0
12 12.09 З 6-10
{12}
н/о 9/5 600 м
[Sc diur, vesp Ci fib]
+7.1 +3.2 76 +3 +3 887.8 +8.5 4
15 12.09 З 5 н/о 9 баллов +6.5 +2.0 73 +2 +2 1003.3 889.3
18 12.09 З 6-11
{11}
н/о 8/5 1000 м
[Sc Ci fib]
+6.4 +1.3 70 +2 +2 888.5
00 13.09 З 5
{12}
50 км 8/8 1000 м
[Sc]
+5.3 -1.7 61 +1 +1 891.1 +5.0
03 13.09 ЮЗ 5-11
{12}
50 км 3/3 1000 м
[Sc diur, vesp]
+8.0 -6.5 35 +5 +8 1005.9 892.0
06 13.09 З 6-10
{11}
50 км 8/4 1000 м
[Cb cap Ac trans]
+6.8 -2.3 52 +3 +4 890.9
09 13.09 З 5
{13}
50 км 6/6 1000 м
[Sc diur, vesp]
+6.4 -3.8 48 +3 +3 1006.5 892.0
12 13.09 З 3 н/о 3/3 1000 м
[Sc diur, vesp]
+2.4 -5.0 58 -1 -1 892.6 +9.1
15 13.09 В 1 н/о 10/5 300 м
[St Ac As]
+0.5 -0.2 95 -2 -2 1010.5 893.3
18 13.09 штиль 0 н/о 10/4 300 м
[St Ac As]
-0.1 -0.9 94 -1 -1 1010.8 893.3
21 13.09 СЗ 1 н/о 8/5 1000 м
[Sc Ac trans]
-1.4 -1.7 98 -4 -4 1008.5 890.7
00 14.09 ЮЗ 2 50 км 3/0
[Ac trans Ci fib]
+4.5 -2.2 62 +2 +4 889.4 -1.4
03 14.09 З 4 50 км 6/4 1000 м
[Sc diur, vesp Ci fib]
+7.0 -6.0 39 +4 +6 1003.2 889.3
06 14.09 З 5
{11}
50 км 8/6 1000 м
[Cb cap Ci fib]
+8.7 -6.7 33 +6 +7 999.6 886.7
09 14.09 З 4 20 км осадки на расстоянии 9 баллов +5.5 -3.1 54 +2 +2 1000.9 886.7
12 14.09 З 3 н/о 9/8 600 м
[Cb cap Ci fib]
+4.2 -1.1 68 +1 +1 883.5 +10.3
15 14.09 З 7 н/о 9 баллов +0.5 -3.1 77 -6 -6 1000.0 884.0
18 14.09 З 4
{14}
н/о {ливн. осадки} 9/8 600 м
[Cb cap Ci fib]
-0.8 -4.0 79 -6 -6 884.7
21 14.09 З 5 н/о 10 баллов -1.1 -6.6 66 -7 -7 1003.9 886.7
00 15.09 З 9-14
{15}
50 км 10/3 600 м
[St As op]
-1.9 -10.8 51 -10 -10 887.3 -1.9 0.3
03 15.09 З 8 50 км 2 балла +0.3 -13.4 35 -6 -5 1007.8 890.7 -2.1
06 15.09 З 6-12
{16}
50 км 8/4 600 м
[Sc Ci fib]
+1.1 -11.7 38 -4 -3 890.9
09 15.09 З 3 50 км 4 балла +0.8 -10.9 41 -3 -2 1010.5 893.3
12 15.09 З 5
{10}
н/о 3/3 1000 м
[Sc diur, vesp]
-0.1 -10.5 45 -5 -5 893.1 +2.1
15 15.09 З 4 н/о 2 балла -0.6 -7.2 61 -6 -6 1011.1 893.3
18 15.09 З 4 н/о 4 балла -1.4 -6.2 70 -7 -7 1011.5 893.3

 

Местоположение метеостанции Большая Лепринда (Забайкальский край, Россия): широта 56.65 долгота 117.60 высота над уровнем моря 1001 м.

В архиве по умолчанию представлена погода в Большой Лепринде за последнюю неделю. Архивные данные за месяц целиком и за предыдущие месяцы, начиная с января 2011 года, Вы можете получить, выбрав интересующий диапазон дат из раскрывающегося списка и нажав кнопку "Ввод!".


*Определитесь, кто Вы:
робот инопланетянин человек

Внимание! Время в таблицах - всемирное. Для получения местного времени необходимо прибавить поправку, которая равна 9 ч.

Смотрите также архив погоды в соседних городах и на ближайших метеорологических станциях:

Погода в Удокане (Забайкальский край, Россия) (44 км)
Погода в Чаре (Забайкальский край, Россия) (46 км)
Погода в Таксимо (Бурятия, Россия) (174 км)
Погода в Средней Олекме (Забайкальский край, Россия) (226 км)
Погода в Усть-Нюкже (Амурская область, Россия) (239 км)
Погода в Мамакане (Иркутская область, Россия) (252 км)
Погода в Усть-Каренге (Забайкальский край, Россия) (256 км)
Погода в Перевозе (Иркутская область, Россия) (265 км)
Погода в Уаките (Бурятия, Россия) (280 км)
Погода в Тупике (Забайкальский край, Россия) (286 км)

Пояснения к столбцам:

Ветер - указаны скорость ветра в м/с - средняя за 10 мин, порывы в срок и между сроками (в фигурных скобках) и направление, откуда дует ветер: С - северный, СВ - северо-восточный, В - восточный, ЮВ - юго-восточный, Ю - южный, ЮЗ - юго-западный, З - западный, СЗ - северо-западный.
Видимость - горизонтальная дальность видимости в метрах или километрах. При видимости от 1 до 10 км при отсутствии осадков обычно наблюдается дымка, при ухудшении видимости до 1 км и менее - туман. В сухую погоду видимость может ухудшаться дымом, пылью или мглою.
Явления - указаны атмосферные явления, наблюдавшиеся в срок или в последний час перед сроком; фигурными скобками обозначены явления, наблюдавшиеся между сроками (за 1-3 часа до срока); квадратными скобками обозначены град или гололедные отложения с указанием их диаметра в мм.
Облачность - указаны через наклонную черту общая и нижняя облачность в баллах и высота нижней границы облаков в метрах; квадратными скобками обозначены формы облаков: Ci - перистые, Cs - перисто-слоистые, Cc - перисто-кучевые, Ac - высококучевые, As - высокослоистые, Sc - слоисто-кучевые, Ns - слоисто-дождевые, Cu - кучевые, Cb - кучево-дождевые. Подробнее классификацию облаков см. в Атласе облаков (PDF).
T - Температура воздуха - температура, измеренная на высоте 2 м над землей.
Td - Температура точки росы - температура, при понижении до которой содержащийся в воздухе водяной пар достигнет насыщения.
f - Относительная влажность воздуха - влажноcть воздуха, измеренная на высоте 2 м над землей.
Te - Эффективная температура - температура, которую ощущает одетый по сезону человек в тени. Характеристика душности погоды. При расчете учитывается влияние влажности воздуха и скорости ветра на теплоощущения человека.
Tes - Эффективная температура на солнце - температура, которую ощущает человек, с поправкой на солнечный нагрев. Характеристика знойности погоды. Зависит от высоты солнца над горизонтом, облачности и скорости ветра. Ночью, в пасмурную погоду, а также при ветре 12 м/с и более поправка равна нулю.
P - Атмосферное давление - приведенное к уровню моря атмосферное давление.
Po - Атмосферное давление - измеренное на уровне метеостанции атмосферное давление.
Tmin - Минимальная температура - минимум температуры воздуха на высоте 2 м над землей.
Tmax - Максимальная температура - максимум температуры воздуха на высоте 2 м над землей.
R - Количество осадков - Количество выпавших осадков за период времени, мм. При наведении курсора мыши на число - период времени, за который выпало указанное количество осадков.
R24 - Количество осадков - Количество выпавших осадков за 24 часа, мм.
S - Снежный покров - Высота снежного покрова, см. При наведении курсора мыши на число - состояние снежного покрова и степень покрытия местности в баллах.